Date String (YYYY-MM-DD hh:mm:ss) UTC,Instrument flags,Ambient pressure (hPa),Sample flow (lpm),Bypass flow (lpm),Sample temperature (°C),Ambient temperature (°C),ASC tube jacket temperature (°C),LED temperature (°C),Box temperature (°C),Sample RH (%),Span deviation,Mass concentration (μg/m³),Mass concentration (μg/m³),Mass concentration (μg/m³)
DateTimeUTC,F1_M11,P_M11,Q1_M11,Q2_M11,T1_M11,T2_M11,T3_M11,T4_M11,T5_M11,U1_M11,ZSPAN_M11,X0_M11,X2_M11,X1_M11
2022-03-18 21:00:00,,0823.9,4.99,0.00,24.8,24.2,00.0,33.6,26.6,07.4,0000.0,0005.99,0003.03,0002.23
2022-03-18 21:01:00,,0824.0,5.00,0.00,24.8,24.2,00.0,33.6,26.6,07.3,0000.0,0005.77,0002.87,0002.09
2022-03-18 21:02:00,,0823.9,5.01,0.00,24.8,24.2,00.0,33.6,26.6,07.1,0000.0,0005.62,0002.63,0001.86
2022-03-18 21:03:00,,0823.9,5.01,0.00,24.8,24.2,00.0,33.6,26.6,07.3,0000.0,0005.17,0002.24,0001.56
2022-03-18 21:04:00,,0823.9,4.99,0.00,24.8,24.2,00.0,33.7,26.7,06.9,0000.0,0004.89,0002.01,0001.32
2022-03-18 21:05:00,,0823.9,5.01,0.00,24.9,24.3,00.0,33.7,26.7,07.3,0000.0,0004.96,0001.98,0001.22
2022-03-18 21:06:00,,0823.9,4.99,0.00,24.9,24.3,00.0,33.7,26.7,07.7,0000.0,0005.19,0002.01,0001.19
2022-03-18 21:07:00,,0824.0,5.01,0.00,24.9,24.3,00.0,33.7,26.7,06.7,0000.0,0005.47,0002.08,0001.18
2022-03-18 21:08:00,,0824.0,5.00,0.00,24.9,24.3,00.0,33.7,26.7,06.6,0000.0,0005.33,0002.06,0001.17
2022-03-18 21:09:00,,0824.0,4.99,0.00,24.9,24.3,00.0,33.7,26.7,06.6,0000.0,0005.42,0002.11,0001.16
2022-03-18 21:10:00,,0824.0,5.00,0.00,25.0,24.4,00.0,33.8,26.7,06.8,0000.0,0004.46,0002.15,0001.16
2022-03-18 21:11:00,,0823.9,5.00,0.00,25.0,24.4,00.0,33.8,26.7,06.7,0000.0,0004.46,0002.17,0001.14
2022-03-18 21:12:00,,0823.9,5.00,0.00,25.0,24.4,00.0,33.8,26.8,06.7,0000.0,0004.61,0002.20,0001.14
2022-03-18 21:13:00,,0824.0,4.99,0.00,25.0,24.4,00.0,33.8,26.9,06.5,0000.0,0004.49,0002.20,0001.15
2022-03-18 21:14:00,,0824.0,5.02,0.00,25.0,24.4,00.0,33.8,26.8,06.5,0000.0,0004.38,0002.17,0001.14
2022-03-18 21:15:00,,0824.0,5.01,0.00,25.0,24.4,00.0,33.8,26.8,06.7,0000.0,0004.45,0002.18,0001.14
2022-03-18 21:16:00,,0824.0,5.00,0.00,25.0,24.4,00.0,33.8,26.8,07.0,0000.0,0004.41,0002.12,0001.13
2022-03-18 21:17:00,,0823.9,5.01,0.00,25.0,24.4,00.0,33.9,26.8,07.0,0000.0,0004.27,0002.09,0001.12
2022-03-18 21:18:00,,0823.9,4.99,0.00,25.1,24.4,00.0,33.9,26.9,07.0,0000.0,0003.79,0001.95,0001.10
2022-03-18 21:19:00,,0823.9,5.00,0.00,25.1,24.4,00.0,33.9,26.9,06.9,0000.0,0003.63,0001.90,0001.09
2022-03-18 21:20:00,,0823.9,5.02,0.00,25.1,24.4,00.0,33.9,26.9,07.0,0000.0,0003.62,0001.86,0001.09
2022-03-18 21:21:00,,0824.0,5.00,0.00,25.1,24.4,00.0,33.9,26.9,06.8,0000.0,0003.72,0001.84,0001.08
2022-03-18 21:22:00,,0823.9,4.99,0.00,25.1,24.4,00.0,33.9,26.9,07.3,0000.0,0003.71,0001.83,0001.07
2022-03-18 21:23:00,,0823.9,5.01,0.00,25.1,24.4,00.0,33.9,26.9,07.9,0000.0,0003.46,0001.78,0001.07
2022-03-18 21:24:00,,0824.0,4.99,0.00,25.1,24.4,00.0,34.0,26.9,08.0,0000.0,0003.41,0001.72,0001.06
2022-03-18 21:25:00,,0824.0,5.01,0.00,25.1,24.5,00.0,34.0,26.9,07.0,0000.0,0003.47,0001.73,0001.04
2022-03-18 21:26:00,,0824.0,4.99,0.00,25.1,24.4,00.0,34.0,26.9,07.1,0000.0,0003.54,0001.75,0001.03
2022-03-18 21:27:00,,0824.1,5.01,0.00,25.1,24.4,00.0,34.0,26.8,06.6,0000.0,0003.78,0001.77,0001.02
2022-03-18 21:28:00,,0824.1,5.00,0.00,25.1,24.4,00.0,34.0,26.9,07.0,0000.0,0003.79,0001.77,0001.03
2022-03-18 21:29:00,,0824.0,4.99,0.00,25.1,24.4,00.0,34.0,26.9,07.3,0000.0,0003.86,0001.81,0001.03
2022-03-18 21:30:00,,0824.1,5.00,0.00,25.2,24.5,00.0,34.0,27.0,07.3,0000.0,0003.86,0001.80,0001.02
2022-03-18 21:31:00,,0824.0,5.00,0.00,25.2,24.5,00.0,34.0,27.0,08.1,0000.0,0003.74,0001.78,0001.02
2022-03-18 21:32:00,,0824.0,5.01,0.00,25.2,24.5,00.0,34.1,27.0,07.6,0000.0,0003.60,0001.74,0001.02
2022-03-18 21:33:00,,0824.0,5.01,0.00,25.2,24.5,00.0,34.1,27.0,07.3,0000.0,0003.77,0001.75,0001.01
2022-03-18 21:34:00,,0824.0,5.00,0.00,25.2,24.5,00.0,34.1,27.0,07.6,0000.0,0003.71,0001.72,0000.99
2022-03-18 21:35:00,,0824.0,5.01,0.00,25.2,24.4,00.0,34.1,27.0,07.8,0000.0,0003.62,0001.73,0000.98
2022-03-18 21:36:00,,0824.0,4.99,0.00,25.2,24.4,00.0,34.1,27.0,07.4,0000.0,0004.02,0001.73,0000.99
2022-03-18 21:37:00,,0824.1,5.01,0.00,25.2,24.4,00.0,34.1,26.9,07.4,0000.0,0005.00,0001.70,0000.98
2022-03-18 21:38:00,,0824.1,4.99,0.00,25.2,24.4,00.0,34.1,27.0,07.3,0000.0,0004.62,0001.65,0000.96
2022-03-18 21:39:00,,0824.0,5.00,0.00,25.2,24.4,00.0,34.1,27.0,07.0,0000.0,0004.48,0001.60,0000.94
2022-03-18 21:40:00,,0824.1,5.00,0.00,25.2,24.4,00.0,34.1,27.0,07.0,0000.0,0005.38,0001.57,0000.92
2022-03-18 21:41:00,,0824.1,4.99,0.00,25.2,24.4,00.0,34.1,27.0,07.5,0000.0,0006.08,0001.57,0000.92
2022-03-18 21:42:00,,0824.1,5.01,0.00,25.1,24.3,00.0,34.1,27.0,08.0,0000.0,0006.40,0001.58,0000.92
2022-03-18 21:43:00,,0824.0,4.98,0.00,25.1,24.3,00.0,34.1,26.9,07.2,0000.0,0006.60,0001.63,0000.92
2022-03-18 21:44:00,,0824.1,5.01,0.00,25.1,24.3,00.0,34.1,26.9,07.0,0000.0,0006.54,0001.61,0000.92
2022-03-18 21:45:00,,0824.1,4.99,0.00,25.1,24.3,00.0,34.1,26.9,07.7,0000.0,0006.61,0001.61,0000.92
2022-03-18 21:46:00,,0824.1,5.02,0.00,25.1,24.3,00.0,34.1,26.8,07.6,0000.0,0006.57,0001.56,0000.91
2022-03-18 21:47:00,,0824.1,4.99,0.00,25.1,24.3,00.0,34.0,26.8,07.9,0000.0,0006.26,0001.52,0000.92
2022-03-18 21:48:00,,0824.1,5.00,0.00,25.1,24.3,00.0,34.0,26.8,07.6,0000.0,0005.06,0001.54,0000.91
2022-03-18 21:49:00,,0824.1,5.01,0.00,25.1,24.3,00.0,34.0,26.7,07.8,0000.0,0005.02,0001.54,0000.91
2022-03-18 21:50:00,,0824.1,4.99,0.00,25.1,24.3,00.0,34.0,26.7,07.5,0000.0,0004.95,0001.52,0000.92
2022-03-18 21:51:00,,0824.1,4.99,0.00,25.1,24.4,00.0,34.1,26.8,07.9,0000.0,0004.21,0001.50,0000.91
2022-03-18 21:52:00,,0824.1,5.01,0.00,25.1,24.4,00.0,34.1,26.9,08.4,0000.0,0003.32,0001.46,0000.91
2022-03-18 21:53:00,,0824.1,4.99,0.00,25.1,24.4,00.0,34.1,26.9,08.1,0000.0,0002.85,0001.44,0000.91
2022-03-18 21:54:00,,0824.1,5.00,0.00,25.1,24.4,00.0,34.1,26.9,07.8,0000.0,0003.25,0001.44,0000.91
2022-03-18 21:55:00,,0824.2,5.01,0.00,25.1,24.4,00.0,34.1,26.9,06.9,0000.0,0003.45,0001.48,0000.92
2022-03-18 21:56:00,,0824.2,4.99,0.00,25.1,24.4,00.0,34.1,26.9,07.2,0000.0,0003.62,0001.54,0000.93
2022-03-18 21:57:00,,0824.2,5.00,0.00,25.1,24.5,00.0,34.1,26.9,07.4,0000.0,0003.70,0001.55,0000.93
2022-03-18 21:58:00,,0824.1,5.01,0.00,25.2,24.4,00.0,34.1,26.9,07.6,0000.0,0003.79,0001.53,0000.91
2022-03-18 21:59:00,,0824.1,4.99,0.00,25.2,24.4,00.0,34.1,26.9,07.4,0000.0,0003.70,0001.51,0000.92
